Location: Ernsee
(50.8780°N, 12.0389°E)
Time: 01:03:26
(UTC+00:00)

Cosmos 2297 Rocket - Pass Details

Date: 20 January 2020
Orbit: 838 x 845 km, 71.0° (Epoch: 22 February)

Event Time Altitude Azimuth Distance (km) Brightness Sun altitude
Exits shadow 03:56:14 14° 178° (S) 2,165 4.3 -29.1°
Drops below altitude 10° 03:57:04 10° 175° (S) 2,461 4.6 -29.0°
Sets 03:59:33 0° 170° (S) 3,392 5.4 -28.6°
